• în România
  • Lista ţărilor
  • Pe 7 zile
  • Temperatura apei
  • Hartă satelitară
  • Meteo pe hartă
  • Widget-uri
  • user-avatar
    Intrare

    Meteo pe oră la Satif

    Astăzi, 24 Iunie, Sâmbătă

    Timp Temperatura Precipitaţii Vânt Presiune Umiditate
    00:00 +20°C° 0 mm 1 m/s 676 mmHg 76%
    01:00 +20°C° 0 mm 1 m/s 676 mmHg 77%
    02:00 +19°C° 0 mm 1 m/s 675 mmHg 79%
    03:00 +17°C° 0 mm 0 m/s 675 mmHg 80%
    04:00 +18°C° 0 mm 0 m/s 676 mmHg 74%
    05:00 +19°C° 0 mm 0 m/s 676 mmHg 67%
    06:00 +21°C° 0 mm 0 m/s 677 mmHg 61%
    07:00 +25°C° 0 mm 1 m/s 677 mmHg 52%
    08:00 +27°C° 0 mm 1 m/s 678 mmHg 44%
    09:00 +29°C° 0 mm 1 m/s 678 mmHg 35%
    10:00 +31°C° 0 mm 2 m/s 678 mmHg 32%
    11:00 +32°C° 0 mm 2 m/s 678 mmHg 28%
    12:00 +34°C° 0 mm 2 m/s 678 mmHg 24%
    13:00 +34°C° 0 mm 2 m/s 678 mmHg 24%
    14:00 +34°C° 0 mm 2 m/s 677 mmHg 24%
    15:00 +34°C° 0 mm 2 m/s 677 mmHg 24%
    16:00 +31°C° 0 mm 2 m/s 676 mmHg 27%
    17:00 +30°C° 0 mm 2 m/s 676 mmHg 31%
    18:00 +28°C° 0 mm 1 m/s 676 mmHg 34%
    19:00 +26°C° 0 mm 1 m/s 676 mmHg 40%
    20:00 +24°C° 0 mm 1 m/s 675 mmHg 47%
    21:00 +22°C° 0 mm 1 m/s 675 mmHg 53%
    22:00 +22°C° 0 mm 1 m/s 675 mmHg 54%
    23:00 +21°C° 0 mm 1 m/s 675 mmHg 55%

    Mâine, 25 Iunie, Duminică

    Timp Temperatura Precipitaţii Vânt Presiune Umiditate
    00:00 +21°C° 0 mm 1 m/s 674 mmHg 56%
    01:00 +20°C° 0 mm 1 m/s 674 mmHg 56%
    02:00 +20°C° 0 mm 1 m/s 674 mmHg 56%
    03:00 +20°C° 0 mm 1 m/s 673 mmHg 56%
    04:00 +21°C° 0 mm 1 m/s 674 mmHg 51%
    05:00 +23°C° 0 mm 1 m/s 674 mmHg 46%
    06:00 +24°C° 0 mm 1 m/s 674 mmHg 42%
    07:00 +27°C° 0 mm 2 m/s 675 mmHg 35%
    08:00 +30°C° 0 mm 2 m/s 676 mmHg 28%
    09:00 +34°C° 0 mm 2 m/s 676 mmHg 21%
    10:00 +34°C° 0 mm 2 m/s 676 mmHg 20%
    11:00 +35°C° 0 mm 2 m/s 676 mmHg 18%
    12:00 +36°C° 0 mm 3 m/s 676 mmHg 17%
    13:00 +36°C° 0 mm 3 m/s 676 mmHg 16%
    14:00 +36°C° 0 mm 3 m/s 675 mmHg 16%
    15:00 +36°C° 0 mm 3 m/s 675 mmHg 16%
    16:00 +35°C° 0 mm 2 m/s 675 mmHg 19%
    17:00 +32°C° 0 mm 2 m/s 674 mmHg 22%
    18:00 +31°C° 0 mm 1 m/s 674 mmHg 25%
    19:00 +29°C° 0 mm 1 m/s 674 mmHg 29%
    20:00 +26°C° 0 mm 1 m/s 673 mmHg 33%
    21:00 +24°C° 0 mm 1 m/s 673 mmHg 37%
    22:00 +24°C° 0 mm 1 m/s 673 mmHg 37%
    23:00 +24°C° 0 mm 1 m/s 673 mmHg 36%

    Poimâine, 26 Iunie, Luni

    Timp Temperatura Precipitaţii Vânt Presiune Umiditate
    00:00 +23°C° 0 mm 2 m/s 673 mmHg 35%
    01:00 +23°C° 0 mm 2 m/s 672 mmHg 35%
    02:00 +23°C° 0 mm 2 m/s 672 mmHg 35%
    03:00 +23°C° 0 mm 2 m/s 671 mmHg 35%
    04:00 +24°C° 0 mm 2 m/s 672 mmHg 33%
    05:00 +25°C° 0 mm 2 m/s 672 mmHg 32%
    06:00 +26°C° 0 mm 2 m/s 672 mmHg 31%
    07:00 +29°C° 0 mm 2 m/s 673 mmHg 26%
    08:00 +33°C° 0 mm 3 m/s 674 mmHg 21%
    09:00 +35°C° 0 mm 3 m/s 674 mmHg 16%
    10:00 +37°C° 0 mm 3 m/s 674 mmHg 15%
    11:00 +38°C° 0 mm 3 m/s 675 mmHg 13%
    12:00 +39°C° 0 mm 3 m/s 675 mmHg 12%
    13:00 +39°C° 0 mm 3 m/s 674 mmHg 12%
    14:00 +39°C° 0 mm 3 m/s 674 mmHg 12%
    15:00 +39°C° 0 mm 3 m/s 674 mmHg 12%
    16:00 +37°C° 0,1 mm 3 m/s 673 mmHg 17%
    17:00 +35°C° 0,1 mm 2 m/s 673 mmHg 21%
    18:00 +32°C° 0,1 mm 1 m/s 673 mmHg 25%
    19:00 +30°C° 0,2 mm 1 m/s 673 mmHg 30%
    20:00 +27°C° 0,2 mm 1 m/s 673 mmHg 35%
    21:00 +25°C° 0,2 mm 1 m/s 672 mmHg 40%
    22:00 +25°C° 0,2 mm 1 m/s 672 mmHg 40%
    23:00 +24°C° 0,2 mm 1 m/s 672 mmHg 40%

    27 Iunie, Marţi

    Timp Temperatura Precipitaţii Vânt Presiune Umiditate
    00:00 +24°C° 0,2 mm 1 m/s 672 mmHg 40%
    01:00 +23°C° 0 mm 1 m/s 671 mmHg 40%
    02:00 +23°C° 0 mm 1 m/s 671 mmHg 40%
    03:00 +22°C° 0 mm 1 m/s 671 mmHg 40%
    04:00 +24°C° 0 mm 1 m/s 672 mmHg 37%
    05:00 +26°C° 0 mm 1 m/s 672 mmHg 35%
    06:00 +25°C° 0 mm 0 m/s 673 mmHg 32%
    07:00 +28°C° 0 mm 0 m/s 674 mmHg 27%
    08:00 +31°C° 0 mm 0 m/s 674 mmHg 22%
    09:00 +33°C° 0 mm 0 m/s 675 mmHg 17%
    10:00 +37°C° 0 mm 1 m/s 675 mmHg 16%
    11:00 +39°C° 0 mm 1 m/s 675 mmHg 15%
    12:00 +40°C° 0 mm 1 m/s 675 mmHg 14%
    13:00 +40°C° 0 mm 1 m/s 675 mmHg 14%
    14:00 +39°C° 0 mm 2 m/s 674 mmHg 15%
    15:00 +38°C° 0 mm 2 m/s 674 mmHg 16%
    16:00 +37°C° 0,1 mm 2 m/s 673 mmHg 19%
    17:00 +35°C° 0,1 mm 1 m/s 673 mmHg 22%
    18:00 +34°C° 0,1 mm 1 m/s 673 mmHg 24%
    19:00 +32°C° 0,4 mm 1 m/s 673 mmHg 30%
    20:00 +30°C° 0,4 mm 1 m/s 673 mmHg 36%
    21:00 +27°C° 0,4 mm 1 m/s 673 mmHg 41%
    22:00 +27°C° 0,3 mm 2 m/s 672 mmHg 44%
    23:00 +26°C° 0,3 mm 2 m/s 672 mmHg 47%

    28 Iunie, Miercuri

    Timp Temperatura Precipitaţii Vânt Presiune Umiditate
    00:00 +25°C° 0,3 mm 3 m/s 671 mmHg 50%
    01:00 +25°C° 0 mm 2 m/s 671 mmHg 51%
    02:00 +24°C° 0 mm 2 m/s 670 mmHg 53%
    03:00 +23°C° 0 mm 2 m/s 670 mmHg 55%
    04:00 +24°C° 0,1 mm 2 m/s 670 mmHg 52%
    05:00 +25°C° 0,1 mm 2 m/s 671 mmHg 49%
    06:00 +26°C° 0,1 mm 2 m/s 671 mmHg 46%
    07:00 +28°C° 0 mm 2 m/s 672 mmHg 38%
    08:00 +31°C° 0 mm 2 m/s 672 mmHg 31%
    09:00 +35°C° 0 mm 2 m/s 673 mmHg 24%
    10:00 +36°C° 0 mm 3 m/s 673 mmHg 22%
    11:00 +36°C° 0 mm 4 m/s 673 mmHg 21%
    12:00 +37°C° 0 mm 4 m/s 673 mmHg 19%
    13:00 +37°C° 0 mm 4 m/s 672 mmHg 21%
    14:00 +36°C° 0 mm 5 m/s 672 mmHg 22%
    15:00 +35°C° 0 mm 5 m/s 672 mmHg 23%
    16:00 +33°C° 0 mm 4 m/s 671 mmHg 30%
    17:00 +30°C° 0 mm 3 m/s 671 mmHg 37%
    18:00 +28°C° 0 mm 2 m/s 671 mmHg 44%
    19:00 +26°C° 0,1 mm 2 m/s 671 mmHg 51%
    20:00 +24°C° 0,1 mm 2 m/s 671 mmHg 58%
    21:00 +23°C° 0,1 mm 2 m/s 671 mmHg 65%
    22:00 +21°C° 0,2 mm 2 m/s 671 mmHg 66%
    23:00 +21°C° 0,2 mm 1 m/s 670 mmHg 67%

    29 Iunie, Joi

    Timp Temperatura Precipitaţii Vânt Presiune Umiditate
    00:00 +21°C° 0,2 mm 1 m/s 670 mmHg 68%
    01:00 +20°C° 0 mm 1 m/s 670 mmHg 68%
    02:00 +20°C° 0 mm 1 m/s 670 mmHg 68%
    03:00 +19°C° 0 mm 1 m/s 669 mmHg 69%
    04:00 +20°C° 0 mm 1 m/s 670 mmHg 64%
    05:00 +20°C° 0 mm 0 m/s 670 mmHg 59%
    06:00 +21°C° 0 mm 0 m/s 671 mmHg 54%
    07:00 +25°C° 0 mm 1 m/s 672 mmHg 45%
    08:00 +27°C° 0 mm 1 m/s 672 mmHg 36%
    09:00 +30°C° 0 mm 1 m/s 673 mmHg 27%
    10:00 +31°C° 0 mm 2 m/s 673 mmHg 25%
    11:00 +33°C° 0 mm 3 m/s 673 mmHg 22%
    12:00 +34°C° 0 mm 4 m/s 673 mmHg 19%
    13:00 +34°C° 0 mm 4 m/s 673 mmHg 21%
    14:00 +33°C° 0 mm 5 m/s 673 mmHg 23%
    15:00 +33°C° 0 mm 5 m/s 673 mmHg 25%
    16:00 +30°C° 0 mm 4 m/s 673 mmHg 30%
    17:00 +29°C° 0 mm 3 m/s 673 mmHg 36%
    18:00 +27°C° 0 mm 2 m/s 672 mmHg 41%
    19:00 +25°C° 0 mm 2 m/s 672 mmHg 52%
    20:00 +23°C° 0 mm 2 m/s 672 mmHg 63%
    21:00 +20°C° 0 mm 2 m/s 672 mmHg 74%
    22:00 +19°C° 0 mm 2 m/s 672 mmHg 77%
    23:00 +18°C° 0 mm 2 m/s 672 mmHg 80%
    Arată mai mult